K5GHS-1 Weather Reports


Display with metric or nautical units.
time (UTC)temp
F
wind
direction
speed
MPH
gust
MPH
rain 1hr
in
rain 24hr
in
rain mn
in
humidity
%
barometer
mb
20260904073814 79 88 1.0 2.0 0.00 0.00 0.00 80 1011.5
20260904073309 79 69 0.0 1.0 0.00 0.00 0.00 80 1011.8
20260904072805 79 68 0.0 2.0 0.00 0.00 0.00 80 1011.7
20260904072306 79 78 0.0 1.0 0.00 0.00 0.00 79 1011.7
20260904071800 79 78 0.0 1.0 0.00 0.00 0.00 79 1011.7
20260904071255 79 76 0.0 1.0 0.00 0.00 0.00 79 1011.8
20260904070749 79 76 1.0 2.0 0.00 0.00 0.00 78 1011.9
20260904070249 79 73 0.0 0.0 0.00 0.00 0.00 78 1011.8
20260904065743 79 81 0.0 1.0 0.00 0.00 0.00 78 1012.0
20260904065240 80 78 0.0 1.0 0.00 0.00 0.00 77 1011.9
20260904064739 80 75 0.0 1.0 0.00 0.00 0.00 77 1011.9
20260904064235 80 79 0.0 1.0 0.00 0.00 0.00 77 1012.0
20260904063731 80 98 0.0 2.0 0.00 0.00 0.00 77 1012.0
20260904063227 80 74 0.0 0.0 0.00 0.00 0.00 77 1012.1
20260904062723 80 70 0.0 2.0 0.00 0.00 0.00 76 1011.9
20260904062218 80 86 0.0 2.0 0.00 0.00 0.00 76 1011.9
20260904061714 80 76 0.0 1.0 0.00 0.00 0.00 76 1012.0
20260904061210 80 73 0.0 1.0 0.00 0.00 0.00 76 1012.1
20260904060707 80 86 1.0 1.0 0.00 0.00 0.00 75 1012.0
20260904060202 80 72 0.0 1.0 0.00 0.00 0.00 75 1012.1
20260904055657 80 97 2.0 2.0 0.00 0.00 0.00 75 1011.8
20260904055152 80 123 2.0 2.0 0.00 0.00 0.00 75 1011.9
20260904054648 80 76 0.0 3.0 0.00 0.00 0.00 75 1012.2
20260904054144 80 118 1.0 2.0 0.00 0.00 0.00 74 1011.9
20260904053644 80 92 1.0 1.0 0.00 0.00 0.00 74 1012.0
20260904053138 80 73 0.0 3.0 0.00 0.00 0.00 74 1011.9
20260904052635 80 82 0.0 1.0 0.00 0.00 0.00 74 1011.9
20260904052130 80 84 2.0 2.0 0.00 0.00 0.00 74 1011.9
20260904051627 81 84 1.0 2.0 0.00 0.00 0.00 73 1011.9
20260904051121 81 89 1.0 3.0 0.00 0.00 0.00 73 1012.0
20260904050616 80 124 5.0 6.0 0.00 0.00 0.00 73 1011.8
20260904050113 81 109 1.0 3.0 0.00 0.00 0.00 73 1011.8
20260904045607 81 88 1.0 2.0 0.00 0.01 0.01 72 1011.7
20260904045102 81 76 1.0 3.0 0.00 0.01 0.01 72 1011.6
20260904044557 81 82 0.0 1.0 0.00 0.01 0.01 71 1011.7
20260904044054 81 78 1.0 1.0 0.00 0.01 0.01 71 1011.9
20260904043550 81 75 0.0 1.0 0.00 0.01 0.01 71 1011.7
20260904043046 81 62 1.0 2.0 0.00 0.01 0.01 70 1011.8
20260904042542 81 80 0.0 1.0 0.00 0.01 0.01 70 1011.8
20260904042037 81 77 1.0 2.0 0.00 0.01 0.01 71 1012.0
20260904041533 81 107 1.0 2.0 0.00 0.01 0.01 71 1011.9
20260904041029 81 51 0.0 1.0 0.00 0.01 0.01 71 1012.0
20260904040528 81 82 0.0 2.0 0.00 0.01 0.01 70 1012.0
20260904040026 82 98 1.0 3.0 0.00 0.01 0.01 70 1012.0
20260904035526 82 81 2.0 2.0 0.00 0.01 0.01 70 1012.1
20260904035025 82 125 2.0 3.0 0.00 0.01 0.01 69 1012.2
20260904034520 82 116 1.0 7.0 0.00 0.01 0.01 69 1012.0
20260904034015 82 90 1.0 2.0 0.00 0.01 0.01 69 1011.8
20260904033511 82 119 1.0 2.0 0.00 0.01 0.01 70 1011.9
20260904033009 82 101 0.0 3.0 0.00 0.01 0.01 70 1011.9
20260904032503 82 107 1.0 2.0 0.00 0.01 0.01 71 1012.1
20260904032002 82 110 2.0 6.0 0.00 0.01 0.01 71 1012.2
20260904031457 83 79 0.0 1.0 0.00 0.01 0.01 71 1011.8
20260904030954 83 78 0.0 2.0 0.00 0.01 0.01 71 1012.1
20260904030449 83 97 1.0 3.0 0.00 0.01 0.01 70 1011.9
20260904025944 84 59 1.0 5.0 0.00 0.01 0.01 70 1011.8
20260904025440 83 134 2.0 5.0 0.00 0.01 0.01 70 1011.9
20260904024940 83 77 0.0 1.0 0.00 0.01 0.01 72 1011.8
20260904024435 84 115 1.0 5.0 0.00 0.01 0.01 71 1011.7
20260904023931 84 112 1.0 1.0 0.00 0.01 0.01 71 1011.6
20260904023427 84 100 0.0 2.0 0.00 0.01 0.01 71 1011.5
20260904022926 84 86 0.0 3.0 0.00 0.01 0.01 71 1011.3
20260904022423 84 89 1.0 7.0 0.00 0.01 0.01 71 1011.3
20260904021919 84 92 1.0 5.0 0.00 0.01 0.01 72 1011.1
20260904021415 84 113 1.0 5.0 0.00 0.01 0.01 73 1011.0
20260904020909 84 78 1.0 3.0 0.00 0.01 0.01 72 1011.1
20260904020405 84 83 0.0 2.0 0.00 0.01 0.01 72 1010.9
20260904015903 84 88 1.0 2.0 0.00 0.01 0.01 72 1011.1
20260904015359 84 85 1.0 3.0 0.00 0.01 0.01 72 1010.7
20260904014857 84 79 1.0 2.0 0.00 0.01 0.01 71 1011.0
20260904014352 85 111 1.0 3.0 0.00 0.01 0.01 71 1010.7
20260904013848 85 81 1.0 1.0 0.00 0.01 0.01 70 1010.5
20260904013344 85 91 0.0 2.0 0.00 0.01 0.01 70 1010.6
20260904012840 85 106 2.0 5.0 0.00 0.01 0.01 70 1010.5
20260904012334 85 74 0.0 1.0 0.00 0.01 0.01 69 1010.5
20260904011833 85 61 2.0 5.0 0.00 0.01 0.01 68 1010.5
20260904011329 85 71 1.0 2.0 0.00 0.01 0.01 67 1010.3
20260904010823 85 72 0.0 3.0 0.00 0.01 0.01 67 1010.2
20260904010321 86 88 1.0 5.0 0.00 0.01 0.01 66 1010.5
20260904005815 86 119 2.0 3.0 0.00 0.01 0.01 65 1010.3
20260904005311 86 106 1.0 3.0 0.00 0.01 0.01 64 1010.5
20260904004805 86 90 1.0 2.0 0.00 0.01 0.01 64 1010.4
20260904004302 86 115 3.0 7.0 0.00 0.01 0.01 63 1010.3
20260904003756 87 75 1.0 8.0 0.00 0.01 0.01 63 1010.4
20260904003253 86 68 2.0 5.0 0.00 0.01 0.01 64 1010.2
20260904002748 87 74 1.0 2.0 0.00 0.01 0.01 65 1010.4
20260904002244 87 76 2.0 6.0 0.00 0.01 0.01 66 1010.1
20260904001738 87 72 0.0 5.0 0.00 0.01 0.01 66 1010.1
20260904001232 87 119 1.0 6.0 0.00 0.01 0.01 66 1010.2
20260904000727 88 91 4.0 7.0 0.00 0.01 0.01 64 1010.3
20260904000222 88 72 0.0 3.0 0.00 0.01 0.01 64 1010.1
20260903235721 88 101 2.0 5.0 0.00 0.01 0.01 64 1010.0
20260903235218 89 55 0.0 2.0 0.00 0.01 0.01 63 1010.0
20260903234712 89 67 0.0 6.0 0.00 0.01 0.01 63 1009.9
20260903234209 89 71 1.0 5.0 0.00 0.01 0.01 62 1009.9
20260903233704 89 100 1.0 5.0 0.00 0.01 0.01 62 1009.7
20260903233200 90 77 3.0 5.0 0.00 0.01 0.01 61 1009.8
20260903232653 90 109 1.0 5.0 0.00 0.01 0.01 61 1009.7
20260903232150 90 77 1.0 5.0 0.00 0.01 0.01 60 1009.9
20260903231649 90 64 1.0 6.0 0.00 0.01 0.01 61 1009.7
20260903231149 90 96 0.0 6.0 0.00 0.01 0.01 61 1009.8
20260903230645 90 147 3.0 6.0 0.00 0.01 0.01 60 1009.7
20260903230144 91 84 0.0 2.0 0.00 0.01 0.01 59 1009.9
20260903225641 91 93 5.0 7.0 0.00 0.01 0.01 59 1009.8
20260903225137 91 81 1.0 5.0 0.00 0.01 0.01 59 1009.8
20260903224633 91 91 0.0 2.0 0.00 0.01 0.01 59 1009.8
20260903224129 91 75 1.0 6.0 0.00 0.01 0.01 59 1010.0
20260903223624 91 64 2.0 6.0 0.00 0.01 0.01 59 1009.7
20260903223122 91 110 1.0 5.0 0.00 0.01 0.01 58 1009.9
20260903222617 91 95 2.0 3.0 0.00 0.01 0.01 58 1009.7
20260903222116 91 82 2.0 6.0 0.00 0.01 0.01 59 1009.5
20260903221612 91 68 3.0 5.0 0.00 0.01 0.01 60 1009.7
20260903221110 92 91 0.0 3.0 0.00 0.01 0.01 59 1009.6
20260903220608 91 64 3.0 6.0 0.00 0.01 0.01 58 1009.5
20260903215601 92 96 1.0 3.0 0.00 0.01 0.01 59 1009.8
20260903215056 91 75 3.0 3.0 0.00 0.01 0.01 60 1009.8
20260903214556 91 113 2.0 7.0 0.00 0.01 0.01 61 1010.0
20260903214051 89 70 1.0 5.0 0.00 0.01 0.01 63 1009.9
20260903213546 91 85 2.0 5.0 0.00 0.01 0.01 60 1010.0
20260903213042 90 73 1.0 3.0 0.00 0.01 0.01 60 1010.1
20260903212538 90 95 1.0 5.0 0.00 0.01 0.01 62 1010.3
20260903212033 91 84 4.0 5.0 0.00 0.01 0.01 59 1010.2
20260903211528 90 105 0.0 6.0 0.00 0.01 0.01 61 1010.2
20260903211025 91 129 3.0 9.0 0.00 0.01 0.01 61 1010.1
20260903210525 91 77 0.0 1.0 0.00 0.01 0.01 60 1010.2
20260903210021 89 77 0.0 3.0 0.00 0.01 0.01 64 1010.2
20260903205514 89 88 3.0 5.0 0.00 0.01 0.01 64 1010.4
20260903205009 89 121 2.0 6.0 0.00 0.01 0.01 64 1010.5
20260903204505 89 136 3.0 7.0 0.00 0.01 0.01 63 1010.4
20260903204000 90 73 0.0 3.0 0.00 0.01 0.01 63 1010.5
20260903203455 90 99 2.0 6.0 0.00 0.01 0.01 63 1010.6
20260903202955 91 141 3.0 7.0 0.00 0.01 0.01 63 1010.8
20260903202451 90 66 1.0 5.0 0.00 0.01 0.01 63 1010.8
20260903201945 89 106 3.0 5.0 0.00 0.01 0.01 64 1010.8
20260903201440 89 61 1.0 5.0 0.00 0.01 0.01 66 1011.0
20260903200939 89 149 1.0 3.0 0.00 0.01 0.01 66 1011.0
20260903200434 89 146 2.0 3.0 0.00 0.01 0.01 66 1010.9
20260903195929 87 136 0.0 5.0 0.00 0.01 0.01 68 1011.1
20260903195426 86 91 1.0 6.0 0.00 0.01 0.01 69 1011.1
20260903194920 86 119 2.0 5.0 0.00 0.01 0.01 69 1010.9
20260903194416 87 57 3.0 5.0 0.00 0.01 0.01 68 1011.0
20260903193911 86 87 1.0 1.0 0.00 0.01 0.01 70 1011.1
20260903193408 86 67 2.0 3.0 0.00 0.01 0.01 70 1011.3
20260903192902 86 103 3.0 7.0 0.00 0.01 0.01 70 1011.3
20260903192358 87 98 1.0 1.0 0.00 0.01 0.01 70 1011.6
20260903191855 86 95 0.0 6.0 0.00 0.01 0.01 70 1011.3
20260903191350 86 111 2.0 7.0 0.00 0.01 0.01 71 1011.6
20260903190849 87 75 2.0 2.0 0.00 0.01 0.01 70 1011.6
20260903190344 86 72 0.0 7.0 0.00 0.01 0.01 71 1011.8
20260903185843 85 104 1.0 8.0 0.00 0.01 0.01 73 1011.8
20260903185338 85 132 3.0 6.0 0.00 0.01 0.01 73 1012.1
20260903184835 85 120 2.0 6.0 0.00 0.01 0.01 73 1011.9
20260903184331 84 90 1.0 3.0 0.00 0.01 0.01 74 1012.0
20260903183826 84 96 1.0 3.0 0.00 0.01 0.01 74 1011.9
20260903183321 84 133 1.0 3.0 0.00 0.01 0.01 75 1012.1
20260903182820 85 130 3.0 6.0 0.00 0.01 0.01 74 1012.1
20260903182314 84 122 0.0 7.0 0.00 0.01 0.01 76 1012.0
20260903181814 84 106 3.0 7.0 0.00 0.01 0.01 76 1012.1
20260903181308 84 83 1.0 3.0 0.00 0.01 0.01 77 1012.1
20260903180803 83 92 3.0 6.0 0.00 0.01 0.01 78 1012.4
20260903180302 83 106 2.0 5.0 0.00 0.01 0.01 79 1012.5
20260903175802 83 135 4.0 10.0 0.00 0.01 0.01 79 1012.7
20260903175301 83 86 2.0 3.0 0.00 0.01 0.01 79 1012.5
20260903174755 82 72 1.0 5.0 0.00 0.01 0.01 81 1012.5
20260903174251 82 77 2.0 8.0 0.00 0.01 0.01 82 1012.6
20260903173745 82 57 1.0 5.0 0.00 0.01 0.01 83 1012.6
20260903173241 82 72 0.0 6.0 0.00 0.01 0.01 84 1012.8
20260903172736 81 132 4.0 5.0 0.00 0.01 0.01 84 1012.6
20260903172231 81 117 3.0 6.0 0.00 0.01 0.01 85 1012.8
20260903171726 81 75 2.0 2.0 0.00 0.01 0.01 85 1013.2
20260903171222 81 79 2.0 5.0 0.00 0.01 0.01 85 1013.1
20260903170720 81 99 1.0 6.0 0.00 0.01 0.01 86 1013.1
20260903170216 81 104 3.0 6.0 0.00 0.01 0.01 85 1013.0
20260903165714 82 81 2.0 6.0 0.00 0.01 0.01 84 1013.1
20260903165209 82 70 0.0 5.0 0.00 0.01 0.01 85 1013.1
20260903164703 83 109 1.0 7.0 0.00 0.01 0.01 84 1012.7
20260903164200 83 77 1.0 3.0 0.00 0.01 0.01 83 1012.8
20260903163659 83 94 0.0 1.0 0.00 0.01 0.01 82 1013.1
20260903163156 83 65 3.0 5.0 0.00 0.01 0.01 82 1012.8
20260903162651 82 138 3.0 6.0 0.00 0.01 0.01 84 1012.8
20260903162147 82 109 3.0 7.0 0.00 0.01 0.01 85 1012.6
20260903161643 82 119 3.0 7.0 0.00 0.01 0.01 85 1012.6
20260903161138 82 79 3.0 3.0 0.00 0.01 0.01 85 1012.7
20260903160633 82 75 1.0 2.0 0.00 0.01 0.01 85 1012.7
20260903160127 82 80 1.0 3.0 0.00 0.01 0.01 84 1012.5
20260903155626 82 99 2.0 7.0 0.00 0.01 0.01 84 1012.6
20260903155121 82 91 0.0 2.0 0.00 0.01 0.01 85 1012.6
20260903154617 82 78 1.0 3.0 0.00 0.01 0.01 84 1012.4
20260903154114 82 104 1.0 3.0 0.00 0.01 0.01 85 1012.5
20260903153609 82 79 1.0 2.0 0.00 0.01 0.01 85 1012.5
20260903153104 81 72 0.0 2.0 0.00 0.01 0.01 87 1012.4
20260903152600 81 74 0.0 2.0 0.00 0.01 0.01 87 1012.6
20260903152056 81 76 0.0 1.0 0.00 0.01 0.01 88 1012.4
20260903151555 80 103 3.0 5.0 0.00 0.01 0.01 87 1012.7
20260903151051 81 89 2.0 7.0 0.00 0.01 0.01 88 1012.6
20260903150544 80 118 0.0 2.0 0.00 0.01 0.01 88 1012.4
20260903150040 80 62 1.0 8.0 0.00 0.01 0.01 88 1012.5
20260903145540 80 84 4.0 6.0 0.00 0.01 0.01 88 1012.4
20260903145035 80 106 2.0 3.0 0.00 0.01 0.01 90 1012.4
20260903144534 80 76 0.0 3.0 0.00 0.01 0.01 91 1012.5
20260903144030 79 79 0.0 1.0 0.00 0.01 0.01 92 1012.7
20260903143526 78 73 1.0 6.0 0.00 0.01 0.01 92 1012.5
20260903143022 78 80 1.0 2.0 0.00 0.01 0.01 92 1012.6
20260903142517 78 74 1.0 3.0 0.00 0.01 0.01 93 1012.6
20260903142014 78 63 1.0 2.0 0.00 0.01 0.01 93 1012.8
20260903141509 78 75 0.0 2.0 0.00 0.01 0.01 93 1012.8
20260903141004 78 81 1.0 2.0 0.00 0.01 0.01 94 1012.8
20260903140459 77 89 0.0 1.0 0.00 0.01 0.01 94 1012.8
20260903135954 77 82 2.0 3.0 0.00 0.01 0.01 94 1012.7
20260903135450 77 113 3.0 5.0 0.00 0.01 0.01 94 1012.7
20260903134945 77 77 0.0 1.0 0.00 0.01 0.01 94 1013.0
20260903134444 77 68 3.0 5.0 0.00 0.01 0.01 95 1012.7
20260903133941 77 84 0.0 1.0 0.00 0.01 0.01 95 1012.7
20260903133438 77 121 1.0 3.0 0.00 0.01 0.01 95 1012.6
20260903132933 77 76 1.0 1.0 0.00 0.01 0.01 95 1012.5
20260903132428 77 87 1.0 1.0 0.00 0.01 0.01 96 1012.3
20260903131927 76 77 1.0 2.0 0.00 0.01 0.01 96 1012.4
20260903131423 76 71 0.0 3.0 0.00 0.01 0.01 96 1012.5
20260903130922 76 109 0.0 1.0 0.00 0.01 0.01 96 1012.6
20260903130417 76 71 0.0 1.0 0.00 0.01 0.01 96 1012.4
20260903125916 76 86 0.0 1.0 0.00 0.01 0.01 96 1012.3
20260903125410 76 104 0.0 2.0 0.00 0.01 0.01 96 1012.2
20260903124910 76 83 0.0 2.0 0.00 0.01 0.01 96 1012.4
20260903124405 76 74 0.0 0.0 0.00 0.01 0.01 96 1012.3
20260903123904 76 104 0.0 2.0 0.00 0.01 0.01 96 1012.4
20260903123359 76 91 0.0 0.0 0.00 0.01 0.01 96 1012.2
20260903122857 76 91 1.0 1.0 0.00 0.01 0.01 96 1012.2
20260903122352 76 78 0.0 0.0 0.00 0.01 0.01 96 1012.2
20260903121851 76 81 0.0 0.0 0.00 0.01 0.01 96 1011.9
20260903121346 76 62 0.0 1.0 0.00 0.01 0.01 96 1012.2
20260903120842 76 76 0.0 1.0 0.00 0.01 0.01 96 1011.9
20260903120340 76 93 0.0 1.0 0.00 0.01 0.01 96 1012.0
20260903115833 76 79 1.0 2.0 0.00 0.01 0.01 96 1012.0
20260903115329 76 82 0.0 1.0 0.00 0.01 0.01 96 1012.1
20260903114828 76 71 0.0 0.0 0.00 0.01 0.01 96 1011.9
20260903114325 76 74 1.0 1.0 0.00 0.01 0.01 96 1011.9
20260903113825 76 87 1.0 2.0 0.00 0.01 0.01 96 1012.0
20260903113315 76 74 0.0 2.0 0.00 0.01 0.01 96 1011.9
20260903112811 75 74 0.0 1.0 0.00 0.01 0.01 96 1011.7
20260903112307 75 71 0.0 2.0 0.00 0.01 0.01 96 1011.7
20260903111805 75 74 0.0 1.0 0.00 0.01 0.01 96 1011.8
20260903111300 75 77 2.0 5.0 0.00 0.01 0.01 96 1011.8
20260903110756 75 109 1.0 1.0 0.00 0.01 0.01 96 1012.0
20260903110252 75 73 0.0 0.0 0.00 0.01 0.01 96 1012.0
20260903105751 75 74 0.0 0.0 0.00 0.01 0.01 96 1011.8
20260903105247 75 112 1.0 1.0 0.00 0.01 0.01 96 1011.7
20260903104746 76 73 0.0 1.0 0.00 0.01 0.01 96 1011.5
20260903104242 76 71 0.0 1.0 0.00 0.01 0.01 96 1011.7
20260903103737 76 67 0.0 1.0 0.00 0.01 0.01 96 1011.6
20260903103233 76 124 0.0 1.0 0.00 0.01 0.01 96 1011.5
20260903102728 76 77 1.0 2.0 0.00 0.01 0.01 96 1011.4
20260903102223 76 76 0.0 1.0 0.00 0.01 0.01 96 1011.5
20260903101721 76 111 1.0 1.0 0.00 0.01 0.01 95 1011.4
20260903101218 76 72 0.0 0.0 0.00 0.01 0.01 95 1011.3
20260903100717 76 73 0.0 0.0 0.00 0.01 0.01 95 1011.3
20260903100212 76 82 0.0 0.0 0.00 0.01 0.01 95 1011.1
20260903095709 76 87 0.0 0.0 0.00 0.01 0.01 95 1011.3
20260903095204 76 75 0.0 1.0 0.00 0.01 0.01 95 1011.3
20260903094659 76 80 0.0 1.0 0.00 0.01 0.01 95 1011.3
20260903094154 76 79 0.0 1.0 0.00 0.01 0.01 95 1011.3
20260903093649 76 77 0.0 2.0 0.00 0.01 0.01 95 1011.4
20260903093145 76 71 0.0 0.0 0.00 0.01 0.01 94 1011.3
20260903092639 76 79 0.0 2.0 0.07 0.01 0.01 94 1011.4
20260903092133 76 69 0.0 0.0 0.07 0.01 0.01 94 1011.5
20260903091632 76 77 0.0 1.0 0.00 0.00 0.00 94 1011.6
20260903091126 76 69 0.0 2.0 0.00 0.00 0.00 93 1011.6
20260903090622 76 75 0.0 1.0 0.00 0.00 0.00 93 1011.5
20260903090121 76 85 1.0 1.0 0.00 0.00 0.00 93 1011.3
20260903085620 76 69 0.0 1.0 0.00 0.00 0.00 93 1011.5
20260903085116 76 66 1.0 2.0 0.00 0.00 0.00 92 1011.6
20260903084613 77 83 0.0 2.0 0.00 0.00 0.00 92 1011.4
20260903084108 77 89 1.0 2.0 0.00 0.00 0.00 91 1011.6
20260903083604 77 80 1.0 6.0 0.00 0.00 0.00 90 1011.5
20260903083103 77 97 3.0 6.0 0.00 0.00 0.00 89 1011.4
20260903082558 78 77 1.0 3.0 0.00 0.00 0.00 88 1011.4
20260903082054 78 112 1.0 2.0 0.00 0.00 0.00 87 1011.5
20260903081549 78 68 2.0 3.0 0.00 0.00 0.00 86 1011.1
20260903081045 78 72 0.0 3.0 0.00 0.00 0.00 86 1011.3
20260903080541 78 75 0.0 3.0 0.00 0.00 0.00 86 1011.4
20260903080038 78 98 1.0 1.0 0.00 0.00 0.00 85 1011.4
20260903075532 78 117 2.0 2.0 0.00 0.00 0.00 85 1011.2
20260903075027 78 76 0.0 6.0 0.00 0.00 0.00 84 1011.3
20260903074526 79 79 1.0 6.0 0.00 0.00 0.00 84 1011.3